Stations météo

réclame
Mon MeteoGroup
Biarritz, France (7602): Température de l'air & dewpoint: 14.11.2017 12:00:00 - 20.11.2017 12:00:00 (CET)Biarritz, France (7602): Température de l'air 5cm: 14.11.2017 12:00:00 - 20.11.2017 12:00:00 (CET)Biarritz, France (7602): Température de l'air -20cm & Température de l'air -100cm: 14.11.2017 12:00:00 - 20.11.2017 12:00:00 (CET)Biarritz, France (7602): Vitesse du vent & gusts: 14.11.2017 12:00:00 - 20.11.2017 12:00:00 (CET)Biarritz, France (7602): Direction du vent: 14.11.2017 12:00:00 - 20.11.2017 12:00:00 (CET)Biarritz, France (7602): reduced air pressure: 14.11.2017 12:00:00 - 20.11.2017 12:00:00 (CET)Biarritz, France (7602): visibility: 14.11.2017 12:00:00 - 20.11.2017 12:00:00 (CET)Biarritz, France (7602): Ensoleillement: 14.11.2017 12:00:00 - 20.11.2017 12:00:00 (CET)Biarritz, France (7602): Quantités de précipitations: 14.11.2017 12:00:00 - 20.11.2017 12:00:00 (CET)
Date & Time tt [°C] td [°C] tt 5cm [°C] tt -20cm [°C] tt -100cm [°C] ff [km/h] ff [knt] fx [km/h] fx [knt] dd ppp [hPa] vv [km] sd [min] rr [mm]
20.11.2017 12:00:00 9,4 7,0 11,3 8,7 13,4 11 6 16 9 E 1024,0 10 60 0,0
20.11.2017 11:00:00 6,6 5,5 8,0 8,7 13,4 9 5 14 8 E 1024,6 10 60 0,0
20.11.2017 10:00:00 4,3 4,0 3,9 8,7 13,4 5 3 12 6 - 1024,7 8 60 0,0
20.11.2017 09:00:00 1,8 1,7 0,0 8,8 13,4 4 2 10 5 - 1024,8 5 30 0,0
20.11.2017 08:00:00 0,4 0,3 -0,1 8,9 13,4 5 3 11 6 - 1024,9 3,2 0 0,0
20.11.2017 07:00:00 0,8 0,7 0,3 9,0 13,4 7 4 11 6 E 1024,8 0,1 0 0,0
20.11.2017 06:00:00 0,9 0,6 0,5 9,1 13,5 5 3 9 5 ENE 1024,5 1,4 0 0,0
20.11.2017 05:00:00 1,6 1,2 0,7 9,2 13,4 5 3 10 5 NE 1024,3 0,5 0 0,0
20.11.2017 04:00:00 3,8 3,7 1,5 9,3 13,5 8 4 12 7 SSE 1024,6 2,2 0 0,2
20.11.2017 03:00:00 2,6 2,3 1,4 9,4 13,5 8 4 11 6 ESE 1025,3 3,4 0 0,0
20.11.2017 02:00:00 3,2 2,8 1,7 9,5 13,5 5 3 10 6 ESE 1025,7 3,1 0 0,0
20.11.2017 01:00:00 3,7 3,3 2,7 9,6 13,5 8 4 18 10 E 1026,2 3,8 0 0,0
20.11.2017 00:00:00 5,2 4,8 2,7 9,7 13,5 13 7 16 9 ENE 1026,5 5 0 0,0
19.11.2017 23:00:00 5,6 5,0 3,8 9,8 13,5 9 5 13 7 ENE 1026,4 5 0 0,0
19.11.2017 22:00:00 6,1 5,2 2,6 9,9 13,5 5 3 8 4 NE 1026,1 7 0 0,0
19.11.2017 21:00:00 6,0 5,0 3,2 10,0 13,5 5 3 10 5 SE 1026,0 10 0 0,0
19.11.2017 20:00:00 6,2 5,2 3,4 10,0 13,5 8 4 11 6 SE 1026,0 10 0 0,0
19.11.2017 19:00:00 7,1 5,2 4,5 10,1 13,5 6 4 9 5 ESE 1026,0 17 0 0,0
19.11.2017 18:00:00 8,0 5,5 5,5 10,0 13,5 5 3 12 6 ENE 1025,7 10 13 0,0
19.11.2017 17:00:00 10,5 5,5 11,7 9,9 13,5 8 5 15 8 NE 1025,3 43 60 0,0
19.11.2017 16:00:00 11,0 5,3 14,4 9,7 13,5 10 6 15 8 NE 1025,2 32 60 0,0
19.11.2017 15:00:00 11,3 5,8 15,1 9,5 13,5 8 5 16 9 ENE 1025,3 33 60 0,0
19.11.2017 14:00:00 11,0 6,1 15,1 9,2 13,6 9 5 16 9 ENE 1026,0 10 60 0,0
19.11.2017 13:00:00 10,4 5,6 15,3 9,1 13,6 8 4 10 5 ENE 1026,3 10 60 0,0
19.11.2017 12:00:00 10,1 6,4 14,3 9,0 13,6 4 2 6 4 - 1026,7 10 60 0,0
19.11.2017 11:00:00 7,5 6,0 9,7 9,0 13,6 5 3 7 4 ENE 1026,8 16 60 0,0
19.11.2017 10:00:00 5,4 5,0 2,9 9,0 13,6 4 2 6 3 SSE 1026,4 10 55 0,2
19.11.2017 09:00:00 1,8 1,7 -0,9 9,1 13,6 4 2 9 5 - 1026,4 6 32 0,0
19.11.2017 08:00:00 -0,1 -0,4 -0,6 9,3 13,6 4 2 8 4 SE 1025,9 1,7 0 0,0
19.11.2017 07:00:00 0,3 0,0 -0,4 9,4 13,6 5 3 11 6 E 1025,6 4,2 0 0,0
19.11.2017 06:00:00 1,5 1,2 -0,5 9,6 13,6 8 4 11 6 SSE 1025,3 4,9 0 0,0
19.11.2017 05:00:00 2,2 1,9 0,3 9,7 13,6 8 4 13 7 SSE 1025,2 6 0 0,0
19.11.2017 04:00:00 2,3 2,0 0,3 9,8 13,6 9 5 14 8 SSE 1025,5 5 0 0,0
19.11.2017 03:00:00 3,0 2,4 0,9 9,9 13,6 4 2 11 6 SE 1025,4 4,3 0 0,0
19.11.2017 02:00:00 3,5 3,4 0,7 10,1 13,6 7 4 10 6 SE 1025,2 1,9 0 0,0
19.11.2017 01:00:00 3,7 3,4 1,2 10,3 13,6 5 3 9 5 SE 1025,4 1,4 0 0,0
19.11.2017 00:00:00 4,2 3,8 1,4 10,4 13,6 5 3 8 4 SE 1025,6 2,7 0 0,0
18.11.2017 23:00:00 5,1 4,4 1,2 10,5 13,6 5 3 9 5 SE 1025,8 3,5 0 0,0
18.11.2017 22:00:00 5,8 4,6 1,4 10,6 13,7 6 3 8 4 SSE 1025,6 4,3 0 0,0
18.11.2017 21:00:00 7,5 5,5 1,3 10,7 13,6 5 3 6 3 SSE 1025,5 11 0 0,0
18.11.2017 20:00:00 8,1 5,2 1,9 10,8 13,7 4 2 6 4 SSE 1025,4 10 0 0,0
18.11.2017 19:00:00 8,8 4,4 4,5 10,9 13,7 5 3 7 4 E 1025,0 10 0 0,0
18.11.2017 18:00:00 10,3 5,5 8,8 10,8 13,7 6 3 13 7 NNE 1025,0 26 14 0,0
18.11.2017 17:00:00 11,9 6,4 13,0 10,7 13,7 8 4 12 7 NNE 1024,6 19 60 0,0
18.11.2017 16:00:00 12,9 7,1 17,2 10,5 13,7 8 4 11 6 NNW 1024,4 10 60 0,0
18.11.2017 15:00:00 12,7 7,2 16,9 10,3 13,7 7 4 16 9 NNW 1024,5 19 60 0,0
18.11.2017 14:00:00 12,9 7,1 17,9 10,0 13,7 5 3 16 9 - 1024,6 10 60 0,0
18.11.2017 13:00:00 12,7 6,7 16,2 9,9 13,7 5 3 14 7 - 1025,0 10 60 0,0
18.11.2017 12:00:00 11,1 7,6 16,5 9,7 13,7 8 4 14 7 N 1025,6 10 60 0,0
18.11.2017 11:00:00 10,8 8,2 13,6 9,7 13,7 6 4 10 5 NNE 1025,5 17 60 0,0
18.11.2017 10:00:00 9,8 9,7 5,0 9,7 13,7 0 0 10 5 N 1025,0 10 55 0,2
18.11.2017 09:00:00 5,1 4,8 3,3 9,8 13,7 8 4 9 5 SSE 1024,9 10 6 0,0
18.11.2017 08:00:00 4,7 4,3 3,7 9,8 13,7 4 2 7 4 E 1024,5 5 0 0,0
18.11.2017 07:00:00 5,6 5,2 4,2 9,9 13,7 2 1 7 4 - 1024,1 5 0 0,0
18.11.2017 06:00:00 7,1 6,5 5,8 9,9 13,7 5 3 9 5 SSW 1024,0 10 0 0,0
18.11.2017 05:00:00 7,4 6,8 5,1 10,0 13,7 8 4 9 5 S 1024,1 10 0 0,0
18.11.2017 04:00:00 7,4 7,0 5,4 10,1 13,8 6 3 9 5 SSW 1024,1 9 0 0,0
18.11.2017 03:00:00 7,6 7,2 6,4 10,1 13,8 6 4 10 6 SSW 1024,1 7 0 0,0
18.11.2017 02:00:00 7,6 7,3 5,2 10,2 13,8 8 4 11 6 SSW 1024,1 7 0 0,0
18.11.2017 01:00:00 7,6 7,3 5,1 10,3 13,8 6 3 10 5 SSW 1024,3 6 0 0,2
18.11.2017 00:00:00 7,8 7,5 3,8 10,4 13,8 5 3 9 5 SSW 1024,3 6 0 0,0
17.11.2017 23:00:00 6,8 6,1 3,3 10,5 13,8 8 4 8 4 S 1024,5 3,1 0 0,0
17.11.2017 22:00:00 8,6 7,8 3,5 10,6 13,8 2 1 6 4 SW 1024,1 3,7 0 0,0
17.11.2017 21:00:00 9,3 8,4 5,6 10,6 13,8 4 2 8 4 S 1023,9 8 0 0,0
17.11.2017 20:00:00 10,7 9,8 5,0 10,6 13,8 5 3 6 3 SSE 1024,3 8 0 0,0
17.11.2017 19:00:00 11,0 9,6 5,2 10,6 13,8 2 1 6 3 NNE 1024,1 10 0 0,0
17.11.2017 18:00:00 12,5 9,9 10,2 10,5 13,9 5 3 11 6 NW 1023,6 10 15 0,0
17.11.2017 17:00:00 13,8 9,4 14,3 10,4 13,9 8 5 16 9 NW 1023,3 44 51 0,0
17.11.2017 16:00:00 14,3 10,9 15,3 10,1 13,9 9 5 17 9 W 1023,0 10 25 0,0
17.11.2017 15:00:00 14,3 10,3 16,2 9,8 13,9 11 6 17 9 W 1023,3 10 47 0,0
17.11.2017 14:00:00 14,6 10,2 18,2 9,6 13,9 11 6 18 10 NW 1023,6 10 60 0,0
17.11.2017 13:00:00 14,2 9,4 15,4 9,4 13,9 10 5 16 8 WNW 1023,9 20 57 0,0
17.11.2017 12:00:00 14,0 9,4 16,1 9,2 13,9 5 3 10 5 SW 1024,4 10 51 0,0
17.11.2017 11:00:00 11,6 7,1 10,7 9,2 13,9 4 2 8 4 - 1024,7 10 30 0,0
17.11.2017 10:00:00 8,4 6,2 6,5 9,2 13,9 5 3 9 5 SSE 1024,7 10 7 0,0
17.11.2017 09:00:00 5,8 4,4 2,2 9,2 14,0 5 3 12 6 SSE 1024,5 10 0 0,0
17.11.2017 08:00:00 4,0 2,8 2,1 9,3 14,0 8 4 16 9 SSE 1024,2 10 0 0,0
17.11.2017 07:00:00 3,6 2,6 1,4 9,4 14,0 9 5 13 7 SSE 1024,0 10 0 0,0
17.11.2017 06:00:00 3,4 2,5 1,2 9,5 14,0 8 4 11 6 SSE 1023,9 10 0 0,0
17.11.2017 05:00:00 4,1 3,2 1,2 9,6 14,0 8 5 13 7 SSE 1023,9 24 0 0,0
17.11.2017 04:00:00 4,7 4,0 1,5 9,7 14,0 9 5 11 6 SSE 1024,0 10 0 0,0
17.11.2017 03:00:00 4,7 3,8 1,5 9,8 14,0 5 3 11 6 S 1024,0 10 0 0,0
17.11.2017 02:00:00 4,8 3,8 1,5 9,9 14,1 7 4 10 6 S 1023,8 12 0 0,0
17.11.2017 01:00:00 4,9 3,7 1,4 10,0 14,1 4 2 9 5 SSW 1024,3 10 0 0,0
17.11.2017 00:00:00 6,3 4,9 1,7 10,1 14,1 5 3 8 4 SSE 1024,0 10 0 0,0
16.11.2017 23:00:00 6,4 5,2 2,3 10,1 14,1 4 2 7 4 S 1024,0 10 0 0,0
16.11.2017 22:00:00 6,4 5,0 3,2 10,3 14,1 5 3 11 6 S 1023,8 10 0 0,0
16.11.2017 21:00:00 7,4 5,2 3,1 10,3 14,1 8 4 10 5 SSE 1023,7 10 0 0,0
16.11.2017 20:00:00 8,2 5,0 3,7 10,4 14,2 5 3 8 4 SSE 1023,6 10 0 0,0
16.11.2017 19:00:00 9,2 4,6 3,7 10,4 14,2 0 0 3 2 N 1023,4 29 0 0,0
16.11.2017 18:00:00 10,4 5,0 4,3 10,3 14,2 0 0 3 1 N 1023,0 10 0 0,0
16.11.2017 17:00:00 12,5 4,7 13,9 10,1 14,2 2 1 9 5 - 1022,7 10 57 0,0
16.11.2017 16:00:00 13,3 5,4 16,2 9,9 14,2 8 4 13 7 NW 1022,5 34 60 0,2
16.11.2017 15:00:00 13,5 4,9 17,2 9,7 14,2 7 4 13 7 NNW 1022,2 20 60 0,0
16.11.2017 14:00:00 13,4 5,8 17,5 9,4 14,3 4 2 10 5 NNW 1022,2 19 60 0,0
16.11.2017 13:00:00 12,9 6,0 17,7 9,2 14,3 5 3 12 7 N 1022,4 10 60 0,0
16.11.2017 12:00:00 12,7 6,1 18,0 9,1 14,3 2 1 7 4 - 1022,8 10 60 0,0
16.11.2017 11:00:00 12,0 5,2 12,3 9,1 14,3 4 2 6 4 - 1022,8 10 53 0,0
16.11.2017 10:00:00 8,0 5,1 7,7 9,1 14,3 4 2 13 7 S 1022,4 10 48 0,0
16.11.2017 09:00:00 3,3 2,7 0,0 9,2 14,3 9 5 13 7 SSE 1022,2 10 32 0,0
16.11.2017 08:00:00 1,2 0,6 -0,3 9,3 14,3 9 5 14 8 SSE 1021,8 10 0 0,0
16.11.2017 07:00:00 1,5 0,9 0,0 9,4 14,4 4 2 11 6 SE 1021,3 23 0 0,0
16.11.2017 06:00:00 1,3 0,7 0,0 9,5 14,3 9 5 16 9 SSE 1020,9 10 0 0,0
16.11.2017 05:00:00 1,4 0,7 0,2 9,6 14,4 8 4 12 6 SSE 1021,0 10 0 0,0
16.11.2017 04:00:00 2,6 2,0 -0,1 9,7 14,4 2 1 12 6 SE 1021,0 10 0 0,2
16.11.2017 03:00:00 2,1 1,5 0,3 9,8 14,4 8 4 13 7 SSE 1021,1 10 0 0,0
16.11.2017 02:00:00 2,2 1,3 0,8 9,9 14,4 9 5 13 7 SSE 1021,3 12 0 0,0
16.11.2017 01:00:00 3,0 2,1 1,2 10,0 14,4 8 4 12 7 SSE 1021,7 10 0 0,0
16.11.2017 00:00:00 3,8 2,9 1,6 10,1 14,4 8 4 14 8 SSE 1021,9 10 0 0,0
15.11.2017 23:00:00 4,1 2,4 2,1 10,3 14,5 9 5 13 7 SSE 1021,8 20 0 0,0
15.11.2017 22:00:00 4,5 2,8 2,8 10,3 14,5 11 6 14 8 SSE 1021,9 10 0 0,0
15.11.2017 21:00:00 6,1 3,8 3,5 10,4 14,5 8 4 9 5 SSE 1021,8 10 0 0,0
15.11.2017 20:00:00 6,6 3,9 4,1 10,5 14,5 5 3 9 5 SE 1021,9 10 0 0,0
15.11.2017 19:00:00 8,1 4,3 7,1 10,5 14,5 8 4 14 8 NE 1021,5 10 0 0,0
15.11.2017 18:00:00 9,2 4,4 7,6 10,4 14,5 8 4 11 6 NE 1021,2 10 17 0,0
15.11.2017 17:00:00 10,5 4,8 11,6 10,3 14,6 5 3 11 6 NE 1020,9 10 60 0,0
15.11.2017 16:00:00 11,4 5,0 14,8 10,1 14,5 8 4 16 8 ENE 1020,9 10 60 0,0
15.11.2017 15:00:00 11,2 5,1 14,7 9,9 14,6 5 3 15 8 - 1021,0 10 60 0,0
15.11.2017 14:00:00 10,2 4,8 12,2 9,7 14,6 11 6 19 10 ENE 1021,6 10 53 0,0
15.11.2017 13:00:00 9,5 3,9 12,2 9,5 14,6 8 4 15 8 NE 1022,4 10 57 0,0
15.11.2017 12:00:00 8,2 5,3 10,8 9,5 14,6 5 3 10 6 E 1023,1 10 40 0,0
15.11.2017 11:00:00 6,6 3,9 6,7 9,4 14,6 5 3 9 5 E 1023,8 10 58 0,0
15.11.2017 10:00:00 4,0 2,8 3,7 9,5 14,7 4 2 7 4 - 1024,0 10 60 0,0
15.11.2017 09:00:00 1,2 0,9 0,1 9,6 14,7 4 2 8 4 ESE 1024,1 7 31 0,0
15.11.2017 08:00:00 0,3 -0,1 -0,4 9,7 14,7 4 2 10 5 - 1023,9 7 0 0,0
15.11.2017 07:00:00 0,7 0,3 -0,3 9,9 14,7 0 0 6 4 N 1023,9 10 0 0,0
15.11.2017 06:00:00 1,1 0,5 -0,3 9,9 14,7 5 3 10 5 ESE 1024,0 8 0 0,0
15.11.2017 05:00:00 1,1 0,5 0,1 10,1 14,7 5 3 9 5 SE 1024,0 10 0 0,0
15.11.2017 04:00:00 1,8 1,1 1,0 10,2 14,7 5 3 11 6 E 1024,3 10 0 0,0
15.11.2017 03:00:00 2,3 1,1 1,2 10,3 14,7 8 4 11 6 ENE 1024,7 10 0 0,0
15.11.2017 02:00:00 3,3 2,1 1,4 10,5 14,8 5 3 10 5 NE 1024,7 10 0 0,0
15.11.2017 01:00:00 3,0 1,8 1,0 10,6 14,8 5 3 13 7 SE 1025,2 10 0 0,0
15.11.2017 00:00:00 3,0 1,8 2,2 10,7 14,8 8 4 11 6 E 1025,7 10 0 0,0
14.11.2017 23:00:00 3,9 2,4 2,0 10,8 14,8 6 3 16 9 E 1026,2 18 0 0,0
14.11.2017 22:00:00 4,9 2,4 3,6 10,9 14,8 8 4 13 7 E 1026,3 21 0 0,0
14.11.2017 21:00:00 6,3 2,7 4,4 11,0 14,8 5 3 10 6 ENE 1026,4 10 0 0,0
14.11.2017 20:00:00 7,7 3,2 1,9 11,1 14,9 3 2 11 6 NE 1026,4 33 0 0,0
14.11.2017 19:00:00 7,5 2,2 2,6 11,1 14,9 2 1 8 4 - 1026,2 10 0 0,0
14.11.2017 18:00:00 8,8 2,4 6,7 11,1 14,9 5 3 16 9 ENE 1025,9 10 18 0,0
14.11.2017 17:00:00 10,1 2,2 11,0 11,0 14,9 9 5 21 12 NE 1025,7 10 60 0,0
14.11.2017 16:00:00 11,0 2,8 14,2 10,9 14,9 11 6 24 13 E 1025,9 10 60 0,0
14.11.2017 15:00:00 10,9 1,9 14,6 10,7 14,9 11 6 22 12 NNE 1026,1 10 60 0,0
14.11.2017 14:00:00 10,7 2,3 14,7 10,6 15,0 13 7 20 11 NE 1026,6 10 60 0,0
14.11.2017 13:00:00 9,8 3,5 13,7 10,4 15,0 11 6 18 10 ENE 1027,3 10 60 0,0
14.11.2017 12:00:00 9,2 3,6 11,9 10,4 15,0 10 5 17 9 ENE 1028,0 48 60 0,0

tt = Température de l'air
td = dewpoint
tt 5cm = Température de l'air 5cm
tt -20cm = Température de l'air -20cm
tt -100cm = Température de l'air -100cm
ff = Vitesse du vent
fx = gusts
dd = Direction du vent
ppp = reduced air pressure
vv = visibility
sd = Ensoleillement
rr = Quantités de précipitations

stations d'obs. à proximité